Regional Weather Roundup
Issued by NWS

Home | Current Version | Previous Version | Graphics & Text | Print | Product List | Glossary On
Versions: 1 2 3 4 5 6 7 8 9 10 11 12 13 14 15 16 17 18 19 20 21 22 23 24 25 26 27 28 29 30 31 32 33 34 35 36 37 38 39 40 41 42 43 44 45 46 47 48 49 50
000
ASUS44 KMEG 091410
RWRTN
TENNESSEE HOURLY STATE WEATHER ROUNDUP
NATIONAL WEATHER SERVICE MEMPHIS TN
800 AM CST TUE FEB 09 2016

TNZ002-004-019-021-049-052-054-088>092-091500-
WEST TENNESSEE

CITY           SKY/WX    TMP DP  RH WIND       PRES   REMARKS
MEMPHIS INTL   MOSUNNY   33  16  49 NW14      29.99R WCI  23
NWS MEMPHIS      N/A     31 N/A N/A MISG        N/A
JACKSON        FLURRIES  26  19  74 NW7       29.96R WCI  18
DYERSBURG      CLOUDY    27  21  80 NE5       29.98R WCI  21
UNION CITY     CLOUDY    21  19  93 CALM      29.95R
PARIS          CLOUDY    19  12  73 NW8       29.94R WCI   9
$$

TNZ008-025-027-028-033-062-065-066-091500-
NORTH MIDDLE TENNESSEE

CITY           SKY/WX    TMP DP  RH WIND       PRES   REMARKS
NASHVILLE      LGT SNOW  26  19  74 VRB6      29.90R WCI  19
CLARKSVILLE    LGT SNOW  23  18  81 NW9       29.90R WCI  13
SMYRNA         LGT SNOW  25  19  80 NW6       29.91S WCI  18
COOKEVILLE     CLOUDY    23  19  86 W5        29.84R WCI  17
CROSSVILLE     LGT SNOW  20  15  81 W7        29.78S VSB 1   WCI  11
$$

TNZ061-075-076-078-094-096-097-091500-
SOUTH MIDDLE TENNESSEE

CITY           SKY/WX    TMP DP  RH WIND       PRES   REMARKS
FAYETTEVILLE   PTSUNNY   28  25  86 W8        29.87S FOG     WCI  20
TULLAHOMA      CLOUDY    25  25 100 W9        29.86R WCI  15
WINCHESTER     CLOUDY    25  23  93 NW3       29.86R
MCMINNVILLE    CLOUDY    23  21  93 N6        29.85R WCI  16
COLUMBIA       CLOUDY    27  27 100 W3        29.87S
SHELBYVILLE    CLOUDY    27  25  93 NW7       29.89R WCI  19
$$

TNZ017-018-042-046-047-091500-
NORTHEAST TENNESSEE

CITY           SKY/WX    TMP DP  RH WIND       PRES   REMARKS
TRI CITIES     LGT SNOW  23  17  78 W14       29.74R VSB 1   WCI  11
$$

TNZ012-013-036-069-073-074-091500-
CENTRAL EAST TENNESSEE

CITY           SKY/WX    TMP DP  RH WIND       PRES   REMARKS
KNOXVILLE      CLOUDY    26  13  57 W14       29.83R WCI  14
OAK RIDGE      CLOUDY    26  16  65 W6        29.84S WCI  19
GATLINBURG     CLOUDY    25  12  58 W10       29.81R WCI  15
MORRISTOWN     CLOUDY    23  18  80 NW12G18   29.77S WCI  12
$$

TNZ083-085-099-091500-
SOUTHEAST TENNESSEE

CITY           SKY/WX    TMP DP  RH WIND       PRES   REMARKS
CHATTANOOGA    LGT SNOW  28  21  75 N5        29.87S FOG     WCI  23
$$

SKY/WX REPORTED AS FAIR MEANS FEW OR NO CLOUDS BELOW
12 THOUSAND FEET.




USA.gov is the U.S. government's official web portal to all federal, state and local government web resources and services.